CT1ETE Weather Reports


time (UTC)temp
C
wind
direction
speed
KPH
gust
KPH
rain 1hr
cm
rain 24hr
cm
rain mn
cm
humidity
%
barometer
mb
20260906033432 23 98 4.8 9.7 0.00 0.00 0.00 66 1019.5
20260906031933 23 101 4.8 11.3 0.00 0.00 0.00 66 1019.6
20260906030431 23 178 1.6 6.4 0.00 0.00 0.00 69 1019.6
20260906024931 23 165 0.0 6.4 0.00 0.00 0.00 68 1019.6
20260906023431 23 165 0.0 6.4 0.00 0.00 0.00 67 1019.6
20260906021928 23 121 3.2 6.4 0.00 0.00 0.00 65 1019.8
20260906021117 23 116 3.2 9.7 0.00 0.00 0.00 66 1019.8
20260906014927 23 161 1.6 6.4 0.00 0.00 0.00 66 1019.8
20260906013424 23 161 1.6 8.0 0.00 0.00 0.00 66 1019.9
20260906011924 23 131 6.4 11.3 0.00 0.00 0.00 67 1020.0
20260906010425 23 226 1.6 4.8 0.00 0.00 0.00 68 1020.0
20260906005623 23 226 1.6 3.2 0.00 0.00 0.00 68 1020.0
20260906003424 23 226 1.6 4.8 0.00 0.00 0.00 66 1020.2
20260906001925 23 226 1.6 3.2 0.00 0.00 0.00 65 1020.0
20260906000425 24 226 4.8 8.0 0.00 0.00 0.00 66 1020.2
20260905235623 24 226 3.2 6.4 0.00 0.00 0.00 64 1020.2
20260905233425 25 226 6.4 8.0 0.00 0.00 0.00 62 1020.2
20260905231924 25 227 4.8 9.7 0.00 0.00 0.00 59 1020.0
20260905230422 25 205 1.6 4.8 0.00 0.00 0.00 55 1020.0
20260905224923 25 205 3.2 8.0 0.00 0.00 0.00 55 1019.9
20260905223421 25 207 3.2 14.5 0.00 0.00 0.00 57 1019.9
20260905222617 26 91 4.8 11.3 0.00 0.00 0.00 56 1019.9
20260905220421 26 52 4.8 6.4 0.00 0.00 0.00 58 1019.9
20260905215612 26 28 3.2 4.8 0.00 0.00 0.00 59 1020.0
20260905213421 26 28 3.2 4.8 0.00 0.00 0.00 58 1020.1
20260905211918 27 28 0.0 3.2 0.00 0.00 0.00 55 1019.9
20260905210417 27 28 3.2 6.4 0.00 0.00 0.00 54 1019.8
20260905204916 27 28 3.2 6.4 0.00 0.00 0.00 51 1020.1
20260905203417 27 28 3.2 6.4 0.00 0.00 0.00 49 1019.8
20260905201916 27 28 1.6 4.8 0.00 0.00 0.00 51 1019.5
20260905200414 27 28 1.6 6.4 0.00 0.00 0.00 51 1019.6
20260905194913 28 28 3.2 6.4 0.00 0.00 0.00 51 1019.3
20260905193412 28 28 0.0 1.6 0.00 0.00 0.00 49 1019.2
20260905191912 28 28 0.0 1.6 0.00 0.00 0.00 50 1019.1
20260905190413 29 28 1.6 3.2 0.00 0.00 0.00 48 1019.1
20260905184912 29 28 1.6 4.8 0.00 0.00 0.00 47 1019.2
20260905183410 30 28 1.6 4.8 0.00 0.00 0.00 47 1019.2
20260905181910 30 28 1.6 4.8 0.00 0.00 0.00 46 1019.4
20260905180409 30 28 1.6 8.0 0.00 0.00 0.00 47 1019.4
20260905175603 30 355 3.2 8.0 0.00 0.00 0.00 43 1019.4
20260905173407 31 323 3.2 4.8 0.00 0.00 0.00 39 1019.5
20260905171906 32 323 1.6 3.2 0.00 0.00 0.00 39 1019.4
20260905170413 32 323 1.6 4.8 0.00 0.00 0.00 39 1019.4
20260905164903 32 323 1.6 4.8 0.00 0.00 0.00 40 1019.4
20260905163402 32 323 1.6 3.2 0.00 0.00 0.00 41 1019.2
20260905161900 31 323 4.8 14.5 0.00 0.00 0.00 40 1019.1
20260905160400 31 244 11.3 17.7 0.00 0.00 0.00 42 1018.9
20260905154900 30 252 8.0 16.1 0.00 0.00 0.00 46 1018.8
20260905153358 30 249 4.8 29.0 0.00 0.00 0.00 48 1019.1
20260905151854 29 250 11.3 22.5 0.00 0.00 0.00 51 1019.1
20260905150352 29 227 11.3 24.1 0.00 0.00 0.00 51 1019.9
20260905144852 30 227 14.5 22.5 0.00 0.00 0.00 50 1019.6
20260905143352 31 244 12.9 22.5 0.00 0.00 0.00 50 1019.5
20260905141851 31 219 9.7 24.1 0.00 0.00 0.00 49 1019.3
20260905140352 32 236 12.9 20.9 0.00 0.00 0.00 46 1019.2
20260905134852 33 239 9.7 19.3 0.00 0.00 0.00 40 1019.2
20260905133352 33 250 8.0 14.5 0.00 0.00 0.00 39 1019.0
20260905131852 34 261 8.0 16.1 0.00 0.00 0.00 37 1018.9
20260905130352 34 286 6.4 16.1 0.00 0.00 0.00 37 1019.0
20260905124848 33 238 8.0 16.1 0.00 0.00 0.00 36 1018.9
20260905123346 33 225 8.0 14.5 0.00 0.00 0.00 37 1019.1
20260905121845 33 232 9.7 17.7 0.00 0.00 0.00 38 1019.1
20260905120341 33 252 3.2 11.3 0.00 0.00 0.00 38 1019.2
20260905114839 33 252 4.8 12.9 0.00 0.00 0.00 38 1019.3
20260905113338 32 248 6.4 14.5 0.00 0.00 0.00 40 1019.5
20260905112530 32 240 6.4 12.9 0.00 0.00 0.00 40 1019.6
20260905110336 32 242 4.8 12.9 0.00 0.00 0.00 44 1019.6
20260905104836 32 236 3.2 8.0 0.00 0.00 0.00 45 1019.5
20260905103335 31 82 1.6 6.4 0.00 0.00 0.00 44 1019.5
20260905101836 31 87 1.6 9.7 0.00 0.00 0.00 43 1019.6
20260905100335 30 87 4.8 9.7 0.00 0.00 0.00 44 1019.4
20260905094835 30 88 4.8 11.3 0.00 0.00 0.00 46 1019.4
20260905094033 30 88 4.8 9.7 0.00 0.00 0.00 49 1019.4
20260905091831 29 93 3.2 6.4 0.00 0.00 0.00 48 1019.4
20260905090331 28 198 1.6 4.8 0.00 0.00 0.00 54 1019.2
20260905084831 28 198 0.0 3.2 0.00 0.00 0.00 54 1019.2
20260905083337 27 198 3.2 4.8 0.00 0.00 0.00 55 1019.3
20260905081830 27 204 3.2 4.8 0.00 0.00 0.00 55 1019.3
20260905080327 26 205 1.6 3.2 0.00 0.00 0.00 56 1019.3
20260905074825 26 205 0.0 1.6 0.00 0.00 0.00 59 1019.2
20260905073323 25 205 0.0 1.6 0.00 0.00 0.00 55 1019.0
20260905071821 24 205 0.0 6.4 0.00 0.00 0.00 56 1019.0
20260905070318 24 205 3.2 6.4 0.00 0.00 0.00 57 1018.9
20260905064818 24 194 1.6 4.8 0.00 0.00 0.00 53 1018.8
20260905063316 24 194 1.6 3.2 0.00 0.00 0.00 52 1018.6
20260905062514 24 194 1.6 4.8 0.00 0.00 0.00 51 1018.5
20260905060316 24 194 3.2 6.4 0.00 0.00 0.00 49 1018.3
20260905060207 24 131 4.8 6.4 0.00 0.00 0.00 52 1018.2
20260905053313 24 205 3.2 4.8 0.00 0.00 0.00 53 1018.2
20260905051808 25 205 3.2 8.0 0.00 0.00 0.00 53 1018.3
20260905050307 25 250 3.2 6.4 0.00 0.00 0.00 52 1018.3
20260905044807 26 250 1.6 4.8 0.00 0.00 0.00 54 1018.6
20260905043307 27 250 3.2 9.7 0.00 0.00 0.00 51 1018.6
20260905041805 28 117 8.0 16.1 0.00 0.00 0.00 40 1018.7
20260905040305 27 88 8.0 16.1 0.00 0.00 0.00 40 1018.9
20260905035516 27 92 8.0 12.9 0.00 0.00 0.00 42 1019.0